SCP
0 -0 0 0 0 0 0 0 0 0 0 0 0 0 0 0 0 0 0 0 0 0 0 0 0 0 0 0 0 0 0 0 0 0 0 0 0 0 0 0 0 0 0
-0 -0 0 0 0 0 0 0 0 0 0 0 0 0 0 0 0 0 0 0 0 0 0 0 0 0 0 0 0 0 0 0 0 0 0 0 0 0 0 0 0 0 0
-0 -0 0 0 0 0 0 0 0 0 0 0 0 0 0 0 0 0 0 0 0 0 0 0 0 0 0 0 0 0 0 0 0 0 0 0 0 0 0 0 0 0 0
-0 -0 0 0 0 0 0 0 0 0 0 0 0 0 0 0 0 0 0 0 0 0 0 0 0 0 0 0 0 0 0 0 0 0 0 0 0 0 0 0 0 0 0
-0 0 0 0 0 0 0 0 0 0 0 0 0 0 0 0 0 0 0 0 0 0 0 0 0 0 0 0 0 0 0 0 0 0 0 0 0 0 0 0 0 0 0
-0 0 0 0 0 0 0 0 0 0 0 0 0 0 0 0 0 0 0 0 0 0 0 0 0 0 0 0 0 0 0 0 0 0 0 0 0 0 0 0 0 0 0
0 0 0 0 0 0 0 0 0 0 0 0 0 0 0 0 0 0 0 0 0 0 0 0 0 0 0 0 0 0 0 0 0 0 0 0 0 0 0 0 0 0 0
0 0 0 0 0 0 0 0 0 0 0 0 0 0 0 0 0 0 0 0 0 0 0 0 0 0 0 0 0 0 0 0 0 0 0 0 0 0 0 0 0 0 0
0 0 0 0 0 0 0 0 0 0 0 0 0 0 0 0 0 0 0 0 0 0 0 0 0 0 0 0 0 0 0 0 0 0 0 0 0 0 0 0 0 0 0
0 0 0 0 0 0 0 0 0 0 0 0 0 0 0 0 0 0 0 0 0 0 0 0 0 0 0 0 0 0 0 0 0 0 0 0 0 0 0 0 0 0 0
0 0 0 0 0 0 0 0 0 0 0 0 0 0 0 0 0 0 0 0 0 0 0 0 0 0 0 0 0 0 0 0 0 0 0 0 0 0 0 0 0 0 0
0 0 0 0 0 0 0 0 0 0 0 0 0 0 0 0 0 0 0 0 0 0 0 0 0 0 0 0 0 0 0 0 0 0 0 0 0 0 0 0 0 0 0
0 0 0 0 0 0 0 0 0 0 0 0 0 0 0 0 0 0 0 0 0 0 0 0 0 0 0 0 0 0 0 0 -0 0 0 0 0 0 0 0 -0 0 0
0 0 0 0 0 0 0 0 0 0 0 0 0 0 0 0 0 0 0 0 0 0 0 0 0 0 0 0 0 0 0 -0 0 0 0 0 0 0 0 0 -0 0 0
0 0 0 0 0 0 0 0 0 0 0 0 0 0 0 0 0 0 0 0 0 0 0 0 0 0 0 0 0 0 0 0 0 0 0 0 0 0 0 0 0 0 0
0 0 0 0 0 0 0 0 0 0 0 0 0 0 0 0 0 0 0 0 0 0 0 0 0 0 0 0 0 0 0 0 0 0 0 0 0 0 0 0 0 0 0
0 0 0 0 0 0 0 0 0 0 0 0 0 0 0 0 0 0 0 0 0 0 0 0 0 0 -0 0 0 -0 0 0 0 0 0 0 0 0 0 0 0 0 -0
0 0 0 0 0 0 0 0 0 0 0 0 0 0 0 0 0 0 0 0 0 0 0 0 0 0 0 0 0 -0 0 0 0 0 0 0 0 0 0 0 0 -0 -0
0 0 0 0 0 0 0 0 0 0 0 0 0 0 0 0 0 0 0 0 0 0 0 0 0 0 -0 -0 -0 0 0 0 0 0 0 0 0 0 0 0 0 0 0
0 0 0 0 0 0 0 0 0 0 0 0 0 0 0 0 0 0 0 0 0 0 0 0 0 -0 0 -0 -0 0 0 0 0 0 0 -0 0 0 -0 0 0 -0 -0
0 0 0 0 0 0 0 0 0 0 0 0 0 0 0 0 0 0 0 0 0 0 0 0 0 0 -0 0 0 0 0 -0 0 0 0 0 0 0 0 0 0 0 0
0 0 0 0 0 0 0 0 0 0 0 0 0 0 0 0 0 0 0 0 0 0 0 -0 0 0 0 0 0 0 0 0 0 0 0 0 0 0 0 0 -0 0 -0
0 0 0 0 0 0 0 0 0 0 0 0 0 0 0 0 0 0 0 0 -0 -0 0 -0 0 0 0 0 0 0 0 0 0 0 0 0 0 0 0 0 0 0 0
0 0 0 0 0 0 0 0 0 0 0 0 0 0 0 0 0 0 -0 -0 0 0 0 -0 0 0 0 0 0 0 0 0 0 0 0 0 0 0 0 0 0 0 0
0 0 0 0 0 0 0 0 0 0 0 0 0 0 0 0 0 0 0 0 0 0 0 0 0 0 0 0 0 0 0 0 0 0 0 0 0 0 0 0 0 0 0
0 0 0 0 0 0 0 0 0 0 0 0 0 0 0 0 0 0 0 0 0 0 0 0 0 0 0 0 0 0 0 0 0 0 0 0 0 0 0 0 0 0 0
Wind_Speed_500mb
68 44 40 29 30 40 35 32 29 26 23 29 29 32 31 42 42 50 52 62 57 52 55 55 56 55 52 45 50 57 55 51 41 33 40 50 55 46 34 27 33 26 29
60 48 36 32 31 40 42 38 37 32 26 33 33 34 38 46 54 57 61 62 57 52 54 58 56 51 48 39 33 30 27 27 29 39 45 41 54 16 12 11 9 14 12
52 49 38 36 39 42 47 46 40 33 38 29 29 34 46 50 54 55 57 59 52 55 61 55 51 49 39 32 33 33 34 37 38 43 41 18 17 35 31 13 17 19 15
46 47 43 43 49 44 49 48 39 45 40 28 33 42 47 49 49 52 52 46 49 59 57 52 50 48 35 35 31 32 30 26 27 29 19 18 24 19 16 15 18 13 12
46 40 40 48 51 30 51 47 51 40 27 32 39 46 45 46 49 48 45 45 53 50 45 47 54 47 38 32 29 32 32 29 27 24 25 24 24 24 27 33 16 11 15
34 32 32 35 44 41 41 44 33 28 31 38 42 42 45 49 47 43 43 50 48 45 53 58 55 51 45 32 27 29 27 29 33 35 34 31 29 25 23 26 20 16 12
27 26 30 30 34 36 35 31 31 32 37 39 38 42 45 39 38 40 44 44 46 56 61 65 64 47 38 36 33 40 43 41 42 43 44 42 39 31 28 32 30 21 13
23 27 33 33 29 30 32 32 31 34 32 34 38 39 32 34 37 42 48 50 56 59 58 62 45 42 39 38 39 41 46 47 47 47 41 37 39 40 31 31 34 24 22
28 29 36 33 27 32 32 29 29 28 30 36 44 40 36 40 47 54 54 58 61 48 42 38 36 35 36 42 47 54 51 43 35 35 31 32 35 32 32 31 34 30 22
29 32 33 36 35 31 27 25 25 28 37 45 45 42 41 49 55 57 59 40 38 41 40 40 42 48 45 45 42 39 28 26 27 25 26 25 24 23 26 30 31 36 35
30 35 38 36 34 30 23 22 27 34 44 45 42 45 50 52 52 58 37 36 45 45 40 40 44 43 42 34 35 23 21 20 19 21 15 13 14 22 27 31 34 38 43
24 29 31 25 24 20 20 26 32 41 43 44 49 50 53 60 46 46 36 41 49 43 40 34 34 35 32 30 26 20 18 19 17 9 11 11 18 19 20 28 32 38 40
32 26 18 21 22 20 21 29 37 42 43 47 50 54 59 51 43 38 40 50 46 36 33 31 32 32 29 24 17 20 16 12 8 7 8 13 14 18 27 30 34 45 45
24 16 20 20 18 18 24 31 37 42 45 50 53 55 57 42 31 38 46 49 39 32 30 30 29 25 20 16 11 14 3 3 6 8 10 10 16 15 16 18 50 53 44
24 19 15 15 18 18 25 32 37 43 47 50 53 58 45 27 31 39 52 39 31 31 28 27 24 18 18 14 8 3 4 4 6 7 7 7 16 20 25 30 54 46 49
18 16 17 20 22 22 25 31 38 44 49 50 55 51 28 26 32 41 48 34 33 30 24 21 17 14 12 10 5 8 8 9 8 8 12 15 19 38 28 19 44 46 56
20 21 23 26 29 27 29 33 41 46 48 53 54 33 24 28 35 48 41 37 32 24 22 17 13 10 10 7 8 12 9 7 7 10 13 20 33 26 27 30 42 36 36
27 27 29 36 36 34 34 36 42 45 49 53 38 27 24 32 40 45 39 36 27 22 21 13 5 8 8 8 13 15 14 12 15 17 14 15 20 21 22 29 33 35 34
34 36 39 39 39 36 33 36 41 46 51 46 30 23 27 34 47 41 37 35 22 18 11 9 11 9 13 19 20 21 15 16 15 17 15 16 17 18 20 22 30 38 39
42 47 48 42 42 37 32 34 41 50 50 36 26 23 31 41 41 36 37 25 20 8 4 11 14 14 12 14 17 17 18 18 17 18 18 19 20 22 22 16 21 32 38
35 42 47 44 43 35 29 36 45 49 41 28 22 26 31 39 32 38 24 18 11 4 9 13 17 16 18 18 20 22 23 16 26 22 27 27 27 25 21 18 22 27 35
46 44 40 48 40 33 29 37 45 45 30 20 23 28 39 27 33 28 19 12 9 11 13 15 18 20 22 21 25 24 22 27 21 22 26 28 24 24 20 22 27 29 42
46 48 41 43 44 36 30 38 41 38 24 17 25 32 27 24 30 26 17 13 10 12 18 17 23 25 26 22 21 23 19 18 16 21 21 22 26 26 25 35 40 31 29
52 50 42 42 44 32 29 33 39 28 22 18 27 30 19 28 28 23 19 18 15 18 19 21 25 23 22 21 20 22 18 18 16 18 19 23 29 30 35 34 33 34 35
50 48 43 42 32 25 29 32 33 22 19 23 27 18 19 23 27 24 23 25 24 19 16 18 22 20 23 20 20 16 16 17 21 25 32 32 33 35 33 33 38 38 37
51 43 35 37 28 23 27 28 26 17 21 25 18 16 20 17 19 20 20 20 23 21 22 26 21 20 20 19 19 18 19 23 23 28 32 33 33 31 29 33 35 35 32
Wind_Direction_500mb
201 217 226 220 218 215 219 230 243 238 256 272 281 294 301 308 310 314 323 325 325 317 315 315 314 312 305 296 283 280 285 288 289 290 294 297 293 291 278 266 257 273 271
211 216 223 226 221 210 221 229 238 245 260 280 290 294 308 309 316 320 325 328 324 319 316 315 311 306 300 294 300 294 289 287 287 297 306 310 312 294 220 222 219 232 225
213 216 225 230 224 219 220 230 235 246 259 292 294 296 312 313 315 321 324 325 321 317 317 316 313 308 302 288 281 280 283 282 287 292 291 292 284 291 292 251 247 242 280
215 220 225 225 224 230 231 233 246 259 280 281 288 309 313 310 320 321 321 318 313 315 315 314 318 320 306 279 284 287 293 294 293 290 290 280 281 291 287 241 270 298 191
219 226 229 228 214 247 232 245 252 270 268 277 302 308 308 316 318 316 314 308 312 314 320 321 322 318 311 298 285 287 289 288 293 290 289 278 278 279 264 284 268 210 273
215 224 229 231 230 234 235 246 258 261 274 296 299 304 309 313 313 310 309 315 322 318 323 321 318 311 302 297 285 284 284 286 288 289 284 276 272 260 264 268 277 282 249
212 219 218 208 207 220 238 240 255 273 285 287 293 301 307 303 305 312 318 320 318 321 318 316 314 306 301 294 285 285 285 285 285 282 278 271 262 254 259 262 267 258 237
200 215 212 211 231 239 233 243 260 271 273 286 300 308 299 301 311 314 315 314 315 316 316 317 311 305 297 293 294 291 289 289 285 281 271 263 261 252 246 258 260 246 233
199 210 215 226 217 222 235 252 260 265 286 307 315 313 310 313 313 315 311 314 316 323 326 326 322 314 303 293 292 296 292 288 291 283 272 257 250 249 234 252 246 221 209
199 201 208 206 218 226 242 248 267 296 310 316 319 319 317 315 319 318 313 324 333 326 318 310 310 310 304 301 303 304 291 289 289 287 280 258 250 242 244 242 232 221 207
177 190 203 213 225 227 244 273 293 307 319 325 326 323 324 326 319 324 327 323 323 321 317 311 314 317 314 312 309 301 301 293 293 285 277 252 259 256 251 235 235 220 205
187 190 192 209 221 241 269 293 312 324 328 330 330 329 328 327 323 328 322 322 324 324 322 321 324 329 322 314 309 303 310 298 276 293 269 274 272 274 247 242 222 205 198
176 177 205 226 239 263 301 320 323 326 327 328 329 328 328 328 329 325 319 325 326 328 331 329 329 334 331 335 320 317 308 287 281 323 310 300 277 257 266 221 204 191 179
175 199 222 237 257 291 313 319 326 329 327 329 329 328 331 331 329 322 321 327 327 328 335 333 338 337 329 344 348 338 332 300 320 333 340 289 290 155 146 193 190 186 167
192 220 240 262 277 301 314 322 328 328 326 328 328 329 332 337 332 321 327 328 326 326 332 336 346 343 336 337 329 359 79 57 5 6 5 327 29 154 138 118 169 148 165
220 250 257 273 293 303 312 323 327 327 326 329 328 329 333 338 330 324 331 328 328 333 334 340 355 357 16 41 82 117 94 79 73 56 50 75 97 128 152 111 145 154 152
265 280 291 301 304 300 309 323 326 324 327 328 329 332 334 335 327 333 333 330 328 333 337 339 357 8 36 43 83 124 93 78 91 88 101 91 94 108 100 119 155 160 164
285 291 304 303 299 297 304 319 322 322 328 331 333 333 340 332 332 336 332 332 337 336 333 342 39 63 48 61 109 114 82 82 84 96 110 126 109 110 103 124 143 162 168
298 300 291 284 287 291 302 313 320 323 333 335 335 339 340 334 338 337 335 337 341 335 336 78 95 82 79 99 109 107 100 97 103 87 100 134 140 120 122 132 152 163 166
301 295 282 277 281 292 299 311 323 329 336 338 342 347 337 340 341 339 337 350 345 358 112 104 103 85 77 102 115 119 110 101 109 103 97 118 133 130 131 144 150 163 174
316 296 280 276 281 286 300 318 327 333 338 344 352 342 340 344 348 341 347 348 338 43 112 122 117 109 111 103 103 115 101 90 112 105 96 104 115 121 120 125 143 150 155
343 343 305 278 274 279 302 320 329 339 343 352 352 342 345 359 354 355 5 360 34 123 127 127 124 120 109 104 105 106 106 103 106 109 101 98 105 120 116 118 132 137 140
330 330 322 282 276 277 299 322 336 345 349 354 352 348 357 10 7 11 16 31 60 116 117 128 129 125 113 109 108 112 113 116 102 117 111 100 103 118 112 117 125 130 134
329 321 305 293 271 276 305 330 343 351 358 358 347 351 13 18 19 26 39 52 88 118 119 126 125 126 126 108 121 110 120 102 108 110 112 114 109 106 115 127 132 132 132
330 330 303 275 271 285 318 336 346 357 8 356 351 16 31 24 33 48 67 81 69 93 116 116 133 134 133 121 108 108 110 106 112 107 116 122 120 123 120 131 139 142 146
330 325 298 260 267 293 322 341 347 3 3 358 22 44 38 47 50 58 81 74 84 86 96 112 126 130 127 128 126 107 117 120 113 138 134 135 137 133 133 131 137 144 145
Wind_Speed_850mb
68 44 40 29 30 40 35 32 29 26 23 29 29 32 31 42 42 50 52 62 57 52 55 55 56 55 52 45 50 57 55 51 41 33 40 50 55 46 34 27 33 26 29
60 48 36 32 31 40 42 38 37 32 26 33 33 34 38 46 54 57 61 62 57 52 54 58 56 51 48 39 33 30 27 27 29 39 45 41 54 16 12 11 9 14 12
52 49 38 36 39 42 47 46 40 33 38 29 29 34 46 50 54 55 57 59 52 55 61 55 51 49 39 32 33 33 34 37 38 43 41 18 17 35 31 13 17 19 15
46 47 43 43 49 44 49 48 39 45 40 28 33 42 47 49 49 52 52 46 49 59 57 52 50 48 35 35 31 32 30 26 27 29 19 18 24 19 16 15 18 13 12
46 40 40 48 51 30 51 47 51 40 27 32 39 46 45 46 49 48 45 45 53 50 45 47 54 47 38 32 29 32 32 29 27 24 25 24 24 24 27 33 16 11 15
34 32 32 35 44 41 41 44 33 28 31 38 42 42 45 49 47 43 43 50 48 45 53 58 55 51 45 32 27 29 27 29 33 35 34 31 29 25 23 26 20 16 12
27 26 30 30 34 36 35 31 31 32 37 39 38 42 45 39 38 40 44 44 46 56 61 65 64 47 38 36 33 40 43 41 42 43 44 42 39 31 28 32 30 21 13
23 27 33 33 29 30 32 32 31 34 32 34 38 39 32 34 37 42 48 50 56 59 58 62 45 42 39 38 39 41 46 47 47 47 41 37 39 40 31 31 34 24 22
28 29 36 33 27 32 32 29 29 28 30 36 44 40 36 40 47 54 54 58 61 48 42 38 36 35 36 42 47 54 51 43 35 35 31 32 35 32 32 31 34 30 22
29 32 33 36 35 31 27 25 25 28 37 45 45 42 41 49 55 57 59 40 38 41 40 40 42 48 45 45 42 39 28 26 27 25 26 25 24 23 26 30 31 36 35
30 35 38 36 34 30 23 22 27 34 44 45 42 45 50 52 52 58 37 36 45 45 40 40 44 43 42 34 35 23 21 20 19 21 15 13 14 22 27 31 34 38 43
24 29 31 25 24 20 20 26 32 41 43 44 49 50 53 60 46 46 36 41 49 43 40 34 34 35 32 30 26 20 18 19 17 9 11 11 18 19 20 28 32 38 40
32 26 18 21 22 20 21 29 37 42 43 47 50 54 59 51 43 38 40 50 46 36 33 31 32 32 29 24 17 20 16 12 8 7 8 13 14 18 27 30 34 45 45
24 16 20 20 18 18 24 31 37 42 45 50 53 55 57 42 31 38 46 49 39 32 30 30 29 25 20 16 11 14 3 3 6 8 10 10 16 15 16 18 50 53 44
24 19 15 15 18 18 25 32 37 43 47 50 53 58 45 27 31 39 52 39 31 31 28 27 24 18 18 14 8 3 4 4 6 7 7 7 16 20 25 30 54 46 49
18 16 17 20 22 22 25 31 38 44 49 50 55 51 28 26 32 41 48 34 33 30 24 21 17 14 12 10 5 8 8 9 8 8 12 15 19 38 28 19 44 46 56
20 21 23 26 29 27 29 33 41 46 48 53 54 33 24 28 35 48 41 37 32 24 22 17 13 10 10 7 8 12 9 7 7 10 13 20 33 26 27 30 42 36 36
27 27 29 36 36 34 34 36 42 45 49 53 38 27 24 32 40 45 39 36 27 22 21 13 5 8 8 8 13 15 14 12 15 17 14 15 20 21 22 29 33 35 34
34 36 39 39 39 36 33 36 41 46 51 46 30 23 27 34 47 41 37 35 22 18 11 9 11 9 13 19 20 21 15 16 15 17 15 16 17 18 20 22 30 38 39
42 47 48 42 42 37 32 34 41 50 50 36 26 23 31 41 41 36 37 25 20 8 4 11 14 14 12 14 17 17 18 18 17 18 18 19 20 22 22 16 21 32 38
35 42 47 44 43 35 29 36 45 49 41 28 22 26 31 39 32 38 24 18 11 4 9 13 17 16 18 18 20 22 23 16 26 22 27 27 27 25 21 18 22 27 35
46 44 40 48 40 33 29 37 45 45 30 20 23 28 39 27 33 28 19 12 9 11 13 15 18 20 22 21 25 24 22 27 21 22 26 28 24 24 20 22 27 29 42
46 48 41 43 44 36 30 38 41 38 24 17 25 32 27 24 30 26 17 13 10 12 18 17 23 25 26 22 21 23 19 18 16 21 21 22 26 26 25 35 40 31 29
52 50 42 42 44 32 29 33 39 28 22 18 27 30 19 28 28 23 19 18 15 18 19 21 25 23 22 21 20 22 18 18 16 18 19 23 29 30 35 34 33 34 35
50 48 43 42 32 25 29 32 33 22 19 23 27 18 19 23 27 24 23 25 24 19 16 18 22 20 23 20 20 16 16 17 21 25 32 32 33 35 33 33 38 38 37
51 43 35 37 28 23 27 28 26 17 21 25 18 16 20 17 19 20 20 20 23 21 22 26 21 20 20 19 19 18 19 23 23 28 32 33 33 31 29 33 35 35 32
Wind_Direction_850mb
201 217 226 220 218 215 219 230 243 238 256 272 281 294 301 308 310 314 323 325 325 317 315 315 314 312 305 296 283 280 285 288 289 290 294 297 293 291 278 266 257 273 271
211 216 223 226 221 210 221 229 238 245 260 280 290 294 308 309 316 320 325 328 324 319 316 315 311 306 300 294 300 294 289 287 287 297 306 310 312 294 220 222 219 232 225
213 216 225 230 224 219 220 230 235 246 259 292 294 296 312 313 315 321 324 325 321 317 317 316 313 308 302 288 281 280 283 282 287 292 291 292 284 291 292 251 247 242 280
215 220 225 225 224 230 231 233 246 259 280 281 288 309 313 310 320 321 321 318 313 315 315 314 318 320 306 279 284 287 293 294 293 290 290 280 281 291 287 241 270 298 191
219 226 229 228 214 247 232 245 252 270 268 277 302 308 308 316 318 316 314 308 312 314 320 321 322 318 311 298 285 287 289 288 293 290 289 278 278 279 264 284 268 210 273
215 224 229 231 230 234 235 246 258 261 274 296 299 304 309 313 313 310 309 315 322 318 323 321 318 311 302 297 285 284 284 286 288 289 284 276 272 260 264 268 277 282 249
212 219 218 208 207 220 238 240 255 273 285 287 293 301 307 303 305 312 318 320 318 321 318 316 314 306 301 294 285 285 285 285 285 282 278 271 262 254 259 262 267 258 237
200 215 212 211 231 239 233 243 260 271 273 286 300 308 299 301 311 314 315 314 315 316 316 317 311 305 297 293 294 291 289 289 285 281 271 263 261 252 246 258 260 246 233
199 210 215 226 217 222 235 252 260 265 286 307 315 313 310 313 313 315 311 314 316 323 326 326 322 314 303 293 292 296 292 288 291 283 272 257 250 249 234 252 246 221 209
199 201 208 206 218 226 242 248 267 296 310 316 319 319 317 315 319 318 313 324 333 326 318 310 310 310 304 301 303 304 291 289 289 287 280 258 250 242 244 242 232 221 207
177 190 203 213 225 227 244 273 293 307 319 325 326 323 324 326 319 324 327 323 323 321 317 311 314 317 314 312 309 301 301 293 293 285 277 252 259 256 251 235 235 220 205
187 190 192 209 221 241 269 293 312 324 328 330 330 329 328 327 323 328 322 322 324 324 322 321 324 329 322 314 309 303 310 298 276 293 269 274 272 274 247 242 222 205 198
176 177 205 226 239 263 301 320 323 326 327 328 329 328 328 328 329 325 319 325 326 328 331 329 329 334 331 335 320 317 308 287 281 323 310 300 277 257 266 221 204 191 179
175 199 222 237 257 291 313 319 326 329 327 329 329 328 331 331 329 322 321 327 327 328 335 333 338 337 329 344 348 338 332 300 320 333 340 289 290 155 146 193 190 186 167
192 220 240 262 277 301 314 322 328 328 326 328 328 329 332 337 332 321 327 328 326 326 332 336 346 343 336 337 329 359 79 57 5 6 5 327 29 154 138 118 169 148 165
220 250 257 273 293 303 312 323 327 327 326 329 328 329 333 338 330 324 331 328 328 333 334 340 355 357 16 41 82 117 94 79 73 56 50 75 97 128 152 111 145 154 152
265 280 291 301 304 300 309 323 326 324 327 328 329 332 334 335 327 333 333 330 328 333 337 339 357 8 36 43 83 124 93 78 91 88 101 91 94 108 100 119 155 160 164
285 291 304 303 299 297 304 319 322 322 328 331 333 333 340 332 332 336 332 332 337 336 333 342 39 63 48 61 109 114 82 82 84 96 110 126 109 110 103 124 143 162 168
298 300 291 284 287 291 302 313 320 323 333 335 335 339 340 334 338 337 335 337 341 335 336 78 95 82 79 99 109 107 100 97 103 87 100 134 140 120 122 132 152 163 166
301 295 282 277 281 292 299 311 323 329 336 338 342 347 337 340 341 339 337 350 345 358 112 104 103 85 77 102 115 119 110 101 109 103 97 118 133 130 131 144 150 163 174
316 296 280 276 281 286 300 318 327 333 338 344 352 342 340 344 348 341 347 348 338 43 112 122 117 109 111 103 103 115 101 90 112 105 96 104 115 121 120 125 143 150 155
343 343 305 278 274 279 302 320 329 339 343 352 352 342 345 359 354 355 5 360 34 123 127 127 124 120 109 104 105 106 106 103 106 109 101 98 105 120 116 118 132 137 140
330 330 322 282 276 277 299 322 336 345 349 354 352 348 357 10 7 11 16 31 60 116 117 128 129 125 113 109 108 112 113 116 102 117 111 100 103 118 112 117 125 130 134
329 321 305 293 271 276 305 330 343 351 358 358 347 351 13 18 19 26 39 52 88 118 119 126 125 126 126 108 121 110 120 102 108 110 112 114 109 106 115 127 132 132 132
330 330 303 275 271 285 318 336 346 357 8 356 351 16 31 24 33 48 67 81 69 93 116 116 133 134 133 121 108 108 110 106 112 107 116 122 120 123 120 131 139 142 146
330 325 298 260 267 293 322 341 347 3 3 358 22 44 38 47 50 58 81 74 84 86 96 112 126 130 127 128 126 107 117 120 113 138 134 135 137 133 133 131 137 144 145